This is the latest recevied weather packets stored in our database for station/object KR4ELZ. If no packets are shown the sender has not sent any weather packets the latest 10 day(s).
| Time | Temp. | Humidity | Pressure | Rain* | Wind** | Luminosity | Snow |
|---|---|---|---|---|---|---|---|
| 1777739306 | 18.33° C | 44% | 1018.2 hPa | 0 mm | - | 635 W/m² | - |
| 1777739002 | 19.44° C | 43% | 1018 hPa | 0 mm | - | 633 W/m² | - |
| 1777738699 | 18.33° C | 40% | 1017.9 hPa | 0 mm | - | 627 W/m² | - |
| 1777738395 | 20° C | 41% | 1018 hPa | 0 mm | - | 624 W/m² | - |
| 1777738093 | 19.44° C | 42% | 1018.1 hPa | 0 mm | - | 615 W/m² | - |
| 1777737792 | 19.44° C | 42% | 1018 hPa | 0 mm | - | 607 W/m² | - |
| 1777737490 | 18.89° C | 44% | 1018.1 hPa | 0 mm | - | 598 W/m² | - |
| 1777737188 | 17.78° C | 45% | 1018.3 hPa | 0 mm | - | 592 W/m² | - |
| 1777736883 | 17.78° C | 45% | 1018.3 hPa | 0 mm | - | 584 W/m² | - |
| 1777736270 | 17.78° C | 45% | 1018.2 hPa | 0 mm | - | 566 W/m² | - |
| 1777735966 | 18.33° C | 45% | 1018.4 hPa | 0 mm | - | 555 W/m² | - |
| 1777735664 | 17.78° C | 47% | 1018.2 hPa | 0 mm | - | 549 W/m² | - |
| 1777735361 | 16.67° C | 53% | 1018.3 hPa | 0 mm | - | 538 W/m² | - |
| 1777735058 | 18.33° C | 50% | 1017.9 hPa | 0 mm | - | 529 W/m² | - |
| 1777734755 | 17.22° C | 44% | 1018.1 hPa | 0 mm | - | 519 W/m² | - |
| 1777734453 | 17.78° C | 45% | 1018.1 hPa | 0 mm | - | 509 W/m² | - |
| 1777734150 | 17.22° C | 49% | 1018.1 hPa | 0 mm | - | 497 W/m² | - |
| 1777733846 | 18.89° C | 44% | 1018.1 hPa | 0 mm | - | 485 W/m² | - |
| 1777733542 | 18.89° C | 41% | 1018.1 hPa | 0 mm | - | 475 W/m² | - |
| 1777733239 | 16.67° C | 40% | 1017.9 hPa | 0 mm | - | 463 W/m² | - |
| 1777732936 | 16.67° C | 47% | 1018 hPa | 0 mm | - | 450 W/m² | - |
| 1777732632 | 16.67° C | 51% | 1017.9 hPa | 0 mm | - | 438 W/m² | - |
| 1777732330 | 16.67° C | 50% | 1017.9 hPa | 0 mm | - | 424 W/m² | - |
| 1777732027 | 16.11° C | 50% | 1017.9 hPa | 0 mm | - | 412 W/m² | - |
| 1777731723 | 16.67° C | 49% | 1017.7 hPa | 0 mm | - | 398 W/m² | - |
* Rain latest hour (hover to see other rain measurements)
** Current wind speed in m/s (hover to see current wind gust speed)